• In United Kingdom
  • List of Countries
  • For 7 days
  • Water Temperature
  • Satellite Maps
  • Weather Map
  • Weather Widgets
  • user-avatar
    Login

    Hourly Weather Ignashevo

    Today, 20 September, Thursday

    Time Temperature Precipitation Wind Pressure Humidity
    00:00 +17°C° 0 mm 2 mps 750 mmHg 95%
    01:00 +16°C° 0 mm 2 mps 750 mmHg 96%
    02:00 +16°C° 0 mm 2 mps 750 mmHg 97%
    03:00 +15°C° 0 mm 2 mps 750 mmHg 97%
    04:00 +14°C° 0 mm 2 mps 751 mmHg 98%
    05:00 +14°C° 0 mm 2 mps 751 mmHg 98%
    06:00 +15°C° 0 mm 2 mps 751 mmHg 94%
    07:00 +15°C° 0 mm 2 mps 751 mmHg 91%
    08:00 +16°C° 0 mm 2 mps 751 mmHg 88%
    09:00 +18°C° 0 mm 2 mps 752 mmHg 79%
    10:00 +19°C° 0 mm 2 mps 752 mmHg 71%
    11:00 +21°C° 0 mm 2 mps 752 mmHg 62%
    12:00 +22°C° 0 mm 3 mps 752 mmHg 60%
    13:00 +24°C° 0 mm 3 mps 752 mmHg 57%
    14:00 +24°C° 0 mm 3 mps 752 mmHg 54%
    15:00 +24°C° 0 mm 2 mps 752 mmHg 60%
    16:00 +23°C° 0 mm 2 mps 752 mmHg 66%
    17:00 +21°C° 0 mm 2 mps 752 mmHg 71%
    18:00 +19°C° 0 mm 2 mps 752 mmHg 76%
    19:00 +18°C° 0 mm 2 mps 752 mmHg 80%
    20:00 +17°C° 0 mm 2 mps 752 mmHg 85%
    21:00 +16°C° 0 mm 2 mps 752 mmHg 86%
    22:00 +16°C° 0 mm 2 mps 752 mmHg 87%
    23:00 +16°C° 0 mm 2 mps 752 mmHg 88%

    Tomorrow, 21 September, Friday

    Time Temperature Precipitation Wind Pressure Humidity
    00:00 +16°C° 0 mm 2 mps 752 mmHg 89%
    01:00 +15°C° 0 mm 2 mps 752 mmHg 91%
    02:00 +15°C° 0 mm 2 mps 753 mmHg 92%
    03:00 +15°C° 0 mm 2 mps 753 mmHg 94%
    04:00 +15°C° 0 mm 2 mps 753 mmHg 95%
    05:00 +15°C° 0 mm 2 mps 753 mmHg 96%
    06:00 +16°C° 0 mm 2 mps 753 mmHg 92%
    07:00 +17°C° 0 mm 2 mps 753 mmHg 88%
    08:00 +19°C° 0 mm 2 mps 753 mmHg 84%
    09:00 +20°C° 0 mm 3 mps 753 mmHg 78%
    10:00 +22°C° 0 mm 3 mps 753 mmHg 72%
    11:00 +25°C° 0 mm 4 mps 753 mmHg 66%
    12:00 +26°C° 0.1 mm 4 mps 752 mmHg 63%
    13:00 +26°C° 0.1 mm 4 mps 752 mmHg 60%
    14:00 +27°C° 0.1 mm 4 mps 752 mmHg 57%
    15:00 +26°C° 0 mm 4 mps 752 mmHg 62%
    16:00 +25°C° 0 mm 3 mps 751 mmHg 67%
    17:00 +24°C° 0 mm 3 mps 751 mmHg 72%
    18:00 +22°C° 0 mm 3 mps 751 mmHg 76%
    19:00 +21°C° 0 mm 3 mps 751 mmHg 79%
    20:00 +20°C° 0 mm 3 mps 750 mmHg 83%
    21:00 +20°C° 0 mm 4 mps 750 mmHg 82%
    22:00 +19°C° 0 mm 4 mps 750 mmHg 81%
    23:00 +19°C° 0 mm 4 mps 750 mmHg 81%

    Day after tomorrow, 22 September, Saturday

    Time Temperature Precipitation Wind Pressure Humidity
    00:00 +19°C° 0 mm 4 mps 749 mmHg 79%
    01:00 +18°C° 0 mm 4 mps 749 mmHg 76%
    02:00 +18°C° 0 mm 4 mps 748 mmHg 74%
    03:00 +18°C° 0 mm 4 mps 747 mmHg 74%
    04:00 +17°C° 0 mm 5 mps 747 mmHg 74%
    05:00 +17°C° 0 mm 5 mps 746 mmHg 74%
    06:00 +17°C° 0 mm 5 mps 746 mmHg 73%
    07:00 +19°C° 0 mm 5 mps 746 mmHg 72%
    08:00 +19°C° 0 mm 5 mps 746 mmHg 70%
    09:00 +17°C° 0.6 mm 5 mps 746 mmHg 74%
    10:00 +16°C° 0.6 mm 5 mps 746 mmHg 78%
    11:00 +17°C° 0.6 mm 4 mps 746 mmHg 81%
    12:00 +15°C° 1 mm 4 mps 746 mmHg 84%
    13:00 +14°C° 1 mm 3 mps 746 mmHg 86%
    14:00 +12°C° 1 mm 3 mps 747 mmHg 88%
    15:00 +12°C° 0.1 mm 3 mps 747 mmHg 88%
    16:00 +12°C° 0.1 mm 3 mps 747 mmHg 88%
    17:00 +12°C° 0.1 mm 3 mps 747 mmHg 88%
    18:00 +12°C° 0.1 mm 3 mps 747 mmHg 86%
    19:00 +12°C° 0.1 mm 3 mps 747 mmHg 85%
    20:00 +12°C° 0.1 mm 3 mps 747 mmHg 83%
    21:00 +11°C° 0.1 mm 3 mps 747 mmHg 83%
    22:00 +11°C° 0.1 mm 3 mps 747 mmHg 84%
    23:00 +10°C° 0.1 mm 3 mps 747 mmHg 84%

    23 September, Sunday

    Time Temperature Precipitation Wind Pressure Humidity
    00:00 +10°C° 0 mm 2 mps 747 mmHg 87%
    01:00 +9°C° 0 mm 2 mps 747 mmHg 89%
    02:00 +8°C° 0 mm 2 mps 747 mmHg 92%
    03:00 +8°C° 0 mm 2 mps 747 mmHg 93%
    04:00 +7°C° 0 mm 2 mps 746 mmHg 95%
    05:00 +7°C° 0 mm 2 mps 746 mmHg 96%
    06:00 +8°C° 0 mm 3 mps 746 mmHg 91%
    07:00 +9°C° 0 mm 3 mps 746 mmHg 86%
    08:00 +10°C° 0 mm 3 mps 745 mmHg 82%
    09:00 +11°C° 0 mm 4 mps 745 mmHg 75%
    10:00 +12°C° 0 mm 4 mps 745 mmHg 69%
    11:00 +14°C° 0 mm 5 mps 745 mmHg 62%
    12:00 +14°C° 0.2 mm 5 mps 745 mmHg 62%
    13:00 +14°C° 0.2 mm 5 mps 744 mmHg 63%
    14:00 +14°C° 0.2 mm 5 mps 744 mmHg 63%
    15:00 +13°C° 0.1 mm 4 mps 744 mmHg 67%
    16:00 +12°C° 0.1 mm 4 mps 744 mmHg 71%
    17:00 +11°C° 0.1 mm 3 mps 744 mmHg 75%
    18:00 +10°C° 0.1 mm 3 mps 745 mmHg 79%
    19:00 +9°C° 0.1 mm 3 mps 745 mmHg 83%
    20:00 +9°C° 0.1 mm 3 mps 745 mmHg 87%
    21:00 +8°C° 0 mm 3 mps 745 mmHg 89%
    22:00 +8°C° 0 mm 3 mps 745 mmHg 91%
    23:00 +8°C° 0 mm 3 mps 745 mmHg 92%

    24 September, Monday

    Time Temperature Precipitation Wind Pressure Humidity
    00:00 +7°C° 0 mm 3 mps 745 mmHg 94%
    01:00 +7°C° 0 mm 2 mps 745 mmHg 95%
    02:00 +7°C° 0 mm 2 mps 745 mmHg 97%
    03:00 +6°C° 0 mm 2 mps 745 mmHg 97%
    04:00 +6°C° 0 mm 2 mps 745 mmHg 97%
    05:00 +6°C° 0 mm 2 mps 745 mmHg 98%
    06:00 +6°C° 0 mm 2 mps 745 mmHg 95%
    07:00 +7°C° 0 mm 2 mps 744 mmHg 92%
    08:00 +8°C° 0 mm 2 mps 744 mmHg 89%
    09:00 +9°C° 0 mm 2 mps 744 mmHg 82%
    10:00 +11°C° 0 mm 3 mps 744 mmHg 75%
    11:00 +12°C° 0 mm 3 mps 743 mmHg 68%
    12:00 +11°C° 0.4 mm 3 mps 742 mmHg 71%
    13:00 +11°C° 0.4 mm 4 mps 741 mmHg 74%
    14:00 +10°C° 0.4 mm 4 mps 740 mmHg 77%
    15:00 +8°C° 2.5 mm 4 mps 739 mmHg 82%
    16:00 +8°C° 2.5 mm 5 mps 738 mmHg 87%
    17:00 +7°C° 2.5 mm 5 mps 737 mmHg 92%
    18:00 +7°C° 2 mm 5 mps 736 mmHg 93%
    19:00 +7°C° 2 mm 5 mps 734 mmHg 93%
    20:00 +7°C° 2 mm 5 mps 733 mmHg 93%
    21:00 +7°C° 0.9 mm 5 mps 732 mmHg 93%
    22:00 +8°C° 0.9 mm 5 mps 730 mmHg 93%
    23:00 +8°C° 0.9 mm 5 mps 729 mmHg 93%

    25 September, Tuesday

    Time Temperature Precipitation Wind Pressure Humidity
    00:00 +8°C° 1.4 mm 4 mps 728 mmHg 94%
    01:00 +10°C° 1.4 mm 4 mps 727 mmHg 95%
    02:00 +10°C° 1.4 mm 4 mps 726 mmHg 95%
    03:00 +10°C° 1 mm 4 mps 726 mmHg 95%
    04:00 +10°C° 1 mm 4 mps 726 mmHg 95%
    05:00 +8°C° 1 mm 4 mps 726 mmHg 95%
    06:00 +8°C° 1 mm 4 mps 726 mmHg 94%
    07:00 +8°C° 1 mm 4 mps 726 mmHg 94%
    08:00 +7°C° 1 mm 5 mps 727 mmHg 94%
    09:00 +7°C° 0.6 mm 5 mps 727 mmHg 93%
    10:00 +7°C° 0.6 mm 5 mps 728 mmHg 92%
    11:00 +5°C° 0.6 mm 6 mps 729 mmHg 91%
    12:00 +5°C° 0.7 mm 6 mps 730 mmHg 91%
    13:00 +5°C° 0.7 mm 6 mps 731 mmHg 91%
    14:00 +5°C° 0.7 mm 6 mps 732 mmHg 91%
    15:00 +5°C° 1 mm 7 mps 733 mmHg 90%
    16:00 +5°C° 1 mm 7 mps 734 mmHg 90%
    17:00 +5°C° 1 mm 8 mps 735 mmHg 89%
    18:00 +4°C° 1 mm 8 mps 735 mmHg 89%
    19:00 +4°C° 1 mm 8 mps 736 mmHg 89%
    20:00 +4°C° 1 mm 7 mps 737 mmHg 89%
    21:00 +4°C° 0.4 mm 7 mps 738 mmHg 88%
    22:00 +4°C° 0.4 mm 7 mps 739 mmHg 88%
    23:00 +3°C° 0.4 mm 7 mps 740 mmHg 88%
    Show more